Other Surface Observations
Issued by NWS Charleston, SC

Current Version | Previous Version | Text Only | Print | Product List | Glossary On
Versions: 1 2 3 4 5 6 7 8 9 10 11 12 13 14 15 16 17 18 19 20 21 22 23 24 25 26 27 28 29 30 31 32 33 34 35 36 37 38 39 40 41 42 43 44 45 46 47 48 49 50
000
SXUS52 KCHS 051828
OSOCHS

MARINE OBSERVATIONS
NATIONAL WEATHER SERVICE CHARLESTON SC
200 PM EDT THU MAY 05 2016

...DOWNTOWN CHARLESTON AND HARBOR...

CITY           SKY/WX    TMP DP  RH WIND       PRES   REMARKS
WATERFRONT PRK   N/A     68  43  40 NW9G18    29.58F

...LAKE MOULTRIE...

CITY           SKY/WX    TMP DP  RH WIND       PRES   REMARKS
PINOPOLIS        N/A     68  50  52 NW14      29.51F

...LAKE AND SUPPLEMENTAL COASTAL OBSERVATIONS...

STATION/POSITION TIME  TEMP    WIND        PRES    WAVE   SWELL
                       AIR SEA DIR/SP/G            HT/PER HT/PER/DIR
                 (UTC) (F)     (DEG/KT/KT) (MB)    (FT/S) (FT/S/D)
FORT PULASKI     1800   67 74              1004.4F
SAPELO ISLAND    1800   70     280/ 18     1005.0F
WINYAH BAY       1700   68     300/ 11     1000.0S
LAKE MURRAY      1800   63     270/ 10/ 16 1003.4S
ACE BASIN NERRS  1700   69     270/  6     1004.0S


...C-MAN AND BUOY OBSERVATIONS...

STATION/POSITION TIME  TEMP    WIND        PRES    WAVE   SWELL
                       AIR SEA DIR/SP/G            HT/PER HT/PER/DIR
                 (UTC) (F)     (DEG/KT/KT) (MB)    (FT/S) (FT/S/D)
BUOY 41004       1750   67 74  280/ 21/ 27 1001.4S   5/ 6
BUOY 41008       NOT AVBL
FOLLY BEACH CMAN 1800   68     300/ 12/ 17 1002.7R
CAPERS NS BUOY   1808   67 70  290/ 17/ 23 1001.6F
FRIPP NS BUOY    1808   67 69  280/ 21/ 27 1002.9F
5E ST. MARYS GA  1721      71                N/A     4/ 4


STATION/POSITION TIME  TEMP    WIND        PRES    WAVE   SWELL
                       AIR SEA DIR/SP/G            HT/PER HT/PER/DIR
                 (UTC) (F)     (DEG/KT/KT) (MB)    (FT/S) (FT/S/D)
FRYING PAN BUOY  1800   67 72  250/ 21/ 25  999.3F
BUOY 41025       1750   59 76   30/ 17/ 21  998.6R   6/ 6
CAPE LOOKOUT NC  1800   63      50/ 15/ 17  998.5R
BUOY 41002       1750   73 74  260/ 19/ 23 1000.8R   6/ 8   2/310/14
BUOY 41010       1720   73 78  290/ 23/ 25 1005.7F
ST AUGUSTINE FL  1800   74 71  270/ 14/ 20 1007.2F

$$




USA.gov is the U.S. government's official web portal to all federal, state and local government web resources and services.